[[{"header":{"parameterUnit":"m.s-1","parameterCategory":1,"la1":30.2991,"la2":30.254,"lo1":-89.0895,"lo2":-89.0444,"dy":0.0017,"dx":0.0017,"nx":28,"ny":28,"refTime":"2025-02-09T03:00:00:Z","depth":0,"parameterNumber":2,"parameterNumberName":"U-component_of_WINDS"},"data":[0,0,0,0,0,0,0,0,0,0,0,0,0,0,0,0,0,0,0,0,0,0,0,0,0,0,0,0,0,0,0,0,0,0,0,0,0,0,0,0,0,0,0,0,0,0,0,0,0,0,0,0,0,0,0,0,0,0,-0.4966,-0.4966,0,-0.4919,-0.4918,-0.4917,-0.4903,-0.4904,-0.4904,-0.4904,-0.4852,-0.4851,-0.4849,0,0,0,0,0,0,0,0,0,0,0,0,0,-0.5042,-0.504,-0.4966,-0.4966,-0.4965,-0.4919,-0.4918,-0.4917,-0.4903,-0.4904,-0.4904,-0.4904,-0.4853,-0.4851,-0.4849,0,0,0,0,0,0,0,0,0,0,0,0,0,-0.5003,-0.504,-0.4966,-0.4953,-0.4951,-0.4919,-0.4918,-0.4917,-0.4903,-0.4904,-0.4904,-0.4904,-0.4854,-0.4851,-0.4849,-0.4826,0,0,-0.4841,-0.484,0,0,0,0,0,0,0,0,-0.5005,-0.5,-0.4955,-0.4954,-0.4952,-0.4917,-0.4925,-0.4886,-0.4903,-0.4921,-0.4904,-0.4905,-0.4873,-0.4869,-0.486,-0.4824,-0.4821,-0.4841,-0.484,-0.4839,-0.4838,0,0,0,0,0,0,0,-0.5008,-0.5002,-0.4947,-0.4955,-0.4952,-0.4948,-0.4942,-0.4918,-0.4896,-0.492,-0.4919,-0.4913,-0.4873,-0.4862,-0.4858,-0.4821,-0.4841,-0.4839,-0.4838,-0.4837,-0.4761,-0.476,0,0,0,0,0,0,-0.5013,-0.5004,-0.4949,-0.4946,-0.498,-0.4946,-0.494,-0.4928,-0.4896,-0.4892,-0.4913,-0.4913,-0.4866,-0.4861,-0.4856,-0.4826,-0.4839,-0.4836,-0.4835,-0.4761,-0.4761,-0.476,0,0,0,0,0,0,-0.5015,-0.5008,-0.4951,-0.4975,-0.4967,-0.4944,-0.493,-0.4927,-0.4916,-0.4891,-0.4887,-0.4907,-0.4866,-0.486,-0.4833,-0.4824,-0.4835,-0.4833,-0.4762,-0.4761,-0.476,-0.4766,0,0,0,0,0,0,-0.5017,-0.5009,-0.5001,-0.4975,-0.4966,-0.493,-0.493,-0.4926,-0.4912,-0.4912,-0.4884,-0.4879,-0.4866,-0.4837,-0.4831,-0.4821,-0.4831,-0.4763,-0.4762,-0.4761,-0.4766,-0.4765,-0.4765,0,0,0,0,0,-0.502,-0.5005,-0.5001,-0.4994,-0.4956,-0.4929,-0.4924,-0.491,-0.4912,-0.4903,-0.4886,-0.488,-0.4826,-0.4834,-0.4827,-0.4816,-0.4763,-0.4762,-0.4761,-0.4767,-0.4766,-0.4765,0,0,0,0,0,0,-0.503,-0.5001,-0.4997,-0.4973,-0.4954,-0.4927,-0.4916,-0.4909,-0.4889,-0.4889,-0.4871,-0.4864,-0.4839,-0.4825,-0.4835,-0.4791,-0.4794,-0.4792,-0.4801,-0.48,-0.4799,-0.4802,-0.4829,0,0,0,0,0,-0.503,-0.5012,-0.4987,-0.4968,-0.4959,-0.4939,-0.4927,-0.4917,-0.4897,-0.4888,-0.487,-0.4849,-0.4827,-0.4813,-0.4791,-0.4765,-0.4757,-0.4753,-0.4752,-0.4752,-0.4749,-0.4732,-0.4729,-0.4756,-0.4756,-0.4756,0,0,-0.5029,-0.5011,-0.5,-0.497,-0.4954,-0.4934,-0.4932,-0.4912,-0.4897,-0.4885,-0.4858,-0.4844,-0.4819,-0.4792,-0.4779,-0.478,-0.474,-0.475,-0.475,-0.4748,-0.473,-0.4728,-0.4725,-0.4755,-0.4755,-0.4755,0,0,-0.5017,-0.5002,-0.4984,-0.4968,-0.4944,-0.493,-0.4926,-0.49,-0.489,-0.4863,-0.4853,-0.4834,-0.4797,-0.4779,-0.4765,-0.4744,-0.4737,-0.4738,-0.4732,-0.4715,-0.4713,-0.4711,-0.4702,-0.4699,-0.4736,-0.4736,-0.4736,0,-0.5018,-0.4989,-0.4975,-0.4955,-0.4941,-0.4929,-0.491,-0.4894,-0.4864,-0.4854,-0.4856,-0.4808,-0.479,-0.4758,-0.4752,-0.4742,-0.4735,-0.4741,-0.4715,-0.4713,-0.4711,-0.4701,-0.4698,-0.4736,-0.4736,-0.4736,-0.4736,0,-0.4991,-0.4971,-0.4959,-0.4931,-0.4915,-0.4895,-0.4876,-0.4862,-0.4854,-0.4839,-0.4811,-0.479,-0.4763,-0.4754,-0.4746,-0.472,-0.4721,-0.4719,-0.4721,-0.4708,-0.4699,-0.4696,-0.4736,-0.4736,-0.4736,-0.4736,0,0,-0.4985,-0.4948,-0.4944,-0.493,-0.4901,-0.4885,-0.4864,-0.4838,-0.4825,-0.4804,-0.4784,-0.4753,-0.475,-0.4734,-0.4723,-0.4709,-0.4691,-0.4708,-0.4707,-0.4704,-0.4658,-0.4659,-0.4655,-0.4686,-0.4685,-0.4685,-0.466,0,-0.4969,-0.4931,-0.4917,-0.4885,-0.4865,-0.4853,-0.4834,-0.4814,-0.4799,-0.4779,-0.4763,-0.474,-0.4739,-0.4729,-0.4714,-0.4696,-0.4681,-0.4698,-0.4666,-0.4665,-0.4671,-0.4651,-0.4652,-0.4629,-0.4656,-0.4656,-0.4655,0,-0.4944,-0.4923,-0.489,-0.4862,-0.4853,-0.4837,-0.4811,-0.4792,-0.4768,-0.4758,-0.474,-0.4729,-0.4704,-0.4709,-0.4673,-0.4685,-0.467,-0.4659,-0.4658,-0.4653,-0.4659,-0.4644,-0.4622,-0.4618,-0.465,-0.465,-0.4651,0,-0.4941,-0.4905,-0.488,-0.4868,-0.4836,-0.4824,-0.4809,-0.4786,-0.477,-0.4747,-0.4736,-0.4711,-0.4696,-0.4675,-0.4657,-0.4662,-0.4622,-0.4625,-0.4612,-0.4612,-0.4603,-0.4604,-0.4577,-0.4596,-0.4596,-0.4596,-0.4596,0,-0.4924,-0.4904,-0.4878,-0.4862,-0.4838,-0.4821,-0.4797,-0.4782,-0.476,-0.474,-0.4728,-0.4709,-0.4687,-0.4664,-0.465,-0.4621,-0.4615,-0.4605,-0.4601,-0.4605,-0.4606,-0.4595,-0.4596,-0.4595,-0.4596,-0.4596,-0.4596,0,-0.4917,-0.4899,-0.487,-0.4841,-0.4833,-0.4817,-0.4791,-0.4775,-0.4759,-0.4734,-0.4726,-0.4702,-0.4675,-0.4654,-0.4619,-0.4609,-0.4578,-0.4575,-0.4586,-0.4584,-0.4571,-0.4572,-0.4535,-0.4528,-0.4553,-0.4553,-0.4553,0,-0.4906,-0.489,-0.4859,-0.4845,-0.4831,-0.4809,-0.4793,-0.4774,-0.4758,-0.4727,-0.4714,-0.4686,-0.4662,-0.4619,-0.4597,-0.4569,-0.4564,-0.4553,-0.456,-0.4564,-0.4562,-0.4562,-0.456,-0.4552,-0.4552,-0.4551,-0.4551,0,-0.4889,-0.488,-0.4859,-0.4833,-0.4814,-0.4792,-0.4771,-0.4759,-0.4737,-0.4718,-0.469,-0.4672,-0.4636,-0.4607,-0.4577,-0.456,-0.4551,-0.4549,-0.4544,-0.4548,-0.4555,-0.4549,-0.4582,-0.455,-0.455,-0.455,-0.455,-0.455,-0.4879,-0.4863,-0.4839,-0.4814,-0.4795,-0.4775,-0.4757,-0.4739,-0.4716,-0.4685,-0.4675,-0.4645,-0.4619,-0.4577,-0.456,-0.4535,-0.4536,-0.4529,-0.4527,-0.4525,-0.4524,-0.4559,-0.453,-0.453,-0.453,-0.453,-0.453,0,-0.486,-0.4843,-0.482,-0.479,-0.477,-0.4764,-0.4738,-0.4721,-0.4696,-0.4672,-0.4649,-0.4616,-0.4587,-0.4563,-0.4533,-0.4517,-0.4512,-0.451,-0.451,-0.4506,-0.4527,-0.4534,-0.4514,-0.4514,-0.4514,-0.4514,-0.4514,-0.4514,-0.4848,-0.482,-0.4808,-0.477,-0.4753,-0.4725,-0.471,-0.469,-0.4671,-0.4635,-0.4611,-0.4595,-0.457,-0.4538,-0.4511,-0.4504,-0.4493,-0.4491,-0.4483,-0.4503,-0.4505,-0.4507,-0.4513,-0.4489,-0.4489,-0.4464,-0.4464,-0.4464]},{"header":{"parameterUnit":"m.s-1","parameterCategory":1,"la1":30.2991,"la2":30.254,"lo1":-89.0895,"lo2":-89.0444,"dy":0.0017,"dx":0.0017,"nx":28,"ny":28,"refTime":"2025-02-09T03:00:00:Z","depth":0,"parameterNumber":3,"parameterNumberName":"V-component_of_WINDS"},"data":[0,0,0,0,0,0,0,0,0,0,0,0,0,0,0,0,0,0,0,0,0,0,0,0,0,0,0,0,0,0,0,0,0,0,0,0,0,0,0,0,0,0,0,0,0,0,0,0,0,0,0,0,0,0,0,0,0,0,0.9787,0.9788,0,0.9949,0.9951,0.9953,0.9995,0.9994,0.9993,0.9992,1.0163,1.0168,1.0174,0,0,0,0,0,0,0,0,0,0,0,0,0,0.9517,0.9522,0.9786,0.9788,0.979,0.9949,0.9951,0.9954,0.9995,0.9994,0.9993,0.9992,1.0161,1.0168,1.0174,0,0,0,0,0,0,0,0,0,0,0,0,0,0.9653,0.9523,0.9786,0.983,0.9836,0.9949,0.9951,0.9954,0.9996,0.9994,0.9993,0.9991,1.0159,1.0167,1.0175,1.0257,0,0,1.02,1.0204,0,0,0,0,0,0,0,0,0.9645,0.9662,0.9822,0.9827,0.9834,0.995,0.9919,1.0056,0.9996,0.9935,0.9992,0.999,1.0094,1.0107,1.0141,1.0265,1.0272,1.0201,1.0206,1.021,1.0212,0,0,0,0,0,0,0,0.9635,0.9656,0.9851,0.9824,0.9832,0.9844,0.9862,0.9945,1.0021,0.994,0.9944,0.9962,1.0097,1.0133,1.0146,1.0275,1.0201,1.0208,1.0213,1.0217,1.0477,1.0479,0,0,0,0,0,0,0.9618,0.9648,0.9846,0.9856,0.9734,0.985,0.987,0.9915,1.002,1.0035,0.9963,0.9964,1.012,1.0136,1.0152,1.0257,1.021,1.0217,1.0222,1.0475,1.0477,1.0479,0,0,0,0,0,0,0.9612,0.9635,0.9839,0.9753,0.978,0.9856,0.9906,0.9919,0.9955,1.0038,1.0052,0.9986,1.0119,1.014,1.0231,1.0263,1.0221,1.0229,1.0473,1.0476,1.0478,1.0465,0,0,0,0,0,0,0.9604,0.9633,0.9663,0.9753,0.9784,0.9914,0.9908,0.9923,0.9969,0.9971,1.0063,1.0077,1.012,1.0218,1.0239,1.0274,1.0235,1.047,1.0474,1.0477,1.0463,1.0468,1.0471,0,0,0,0,0,0.9594,0.9653,0.9664,0.9688,0.9823,0.9915,0.9933,0.998,0.9971,1.0003,1.0057,1.0074,1.0256,1.0227,1.0251,1.0289,1.0468,1.0473,1.0477,1.0462,1.0467,1.0471,0,0,0,0,0,0,0.9565,0.9665,0.9679,0.9768,0.9833,0.9922,0.9964,0.9984,1.0054,1.0052,1.0109,1.013,1.0217,1.0262,1.0228,1.0375,1.0363,1.0372,1.0343,1.0348,1.0352,1.034,1.0242,0,0,0,0,0,0.9569,0.9634,0.9718,0.9789,0.9821,0.9887,0.9929,0.9959,1.0029,1.0057,1.0117,1.0186,1.0259,1.0306,1.0377,1.047,1.0492,1.0508,1.0511,1.0514,1.0522,1.0578,1.0587,1.0494,1.0494,1.0494,0,0,0.9578,0.9641,0.9678,0.9785,0.9839,0.9907,0.991,0.9981,1.0033,1.0069,1.0158,1.0205,1.0285,1.0378,1.0422,1.0418,1.0553,1.052,1.0521,1.0528,1.0583,1.0592,1.06,1.0497,1.0496,1.0496,0,0,0.9629,0.9682,0.9748,0.9802,0.9883,0.9927,0.9943,1.003,1.0062,1.0153,1.0182,1.0245,1.0369,1.0426,1.0471,1.0547,1.0566,1.0568,1.0589,1.0643,1.065,1.0657,1.0687,1.0696,1.0576,1.0576,1.0576,0,0.963,0.9732,0.978,0.985,0.9898,0.9933,1.0002,1.0052,1.0153,1.0186,1.018,1.0338,1.0394,1.0502,1.0521,1.0555,1.0577,1.0558,1.0645,1.0652,1.0659,1.0688,1.0699,1.0576,1.0576,1.0576,1.0576,0,0.9731,0.9802,0.9846,0.9942,0.9994,1.0064,1.0124,1.0172,1.0198,1.0243,1.0337,1.0406,1.0493,1.0521,1.0548,1.0634,1.063,1.0633,1.0622,1.0667,1.0696,1.0707,1.0575,1.0575,1.0575,1.0575,0,0,0.9769,0.9891,0.9907,0.9952,1.0045,1.0102,1.0174,1.0259,1.03,1.0369,1.0433,1.0537,1.0542,1.0594,1.0627,1.0674,1.0733,1.0673,1.0676,1.0684,1.0836,1.0834,1.0846,1.0746,1.0748,1.075,1.083,0,0.9834,0.9962,1.0008,1.0115,1.0183,1.0218,1.0281,1.0347,1.0391,1.0457,1.0507,1.0581,1.0581,1.0612,1.066,1.0715,1.0765,1.071,1.0809,1.0811,1.0789,1.086,1.0858,1.093,1.0841,1.0843,1.0844,0,0.9926,0.9996,1.011,1.0197,1.0227,1.0283,1.0366,1.0427,1.0503,1.0533,1.0591,1.0621,1.0701,1.0684,1.0797,1.0759,1.0802,1.0835,1.0839,1.0852,1.0832,1.0877,1.0954,1.0965,1.0862,1.086,1.0859,0,0.9945,1.0068,1.0152,1.019,1.0293,1.0332,1.0377,1.0451,1.05,1.0573,1.0606,1.0687,1.0732,1.0796,1.0849,1.0831,1.0958,1.0944,1.0987,1.0986,1.1013,1.1011,1.11,1.1037,1.1037,1.1037,1.1036,0,1.0014,1.0083,1.0163,1.0215,1.0294,1.0347,1.0425,1.0472,1.0538,1.0602,1.0637,1.0697,1.0763,1.0832,1.0874,1.0962,1.0982,1.101,1.1021,1.1008,1.1005,1.1038,1.1036,1.104,1.1039,1.1038,1.1038,0,1.0049,1.0105,1.02,1.029,1.0314,1.0369,1.0447,1.0501,1.0547,1.0628,1.065,1.0724,1.0807,1.0866,1.0973,1.1002,1.1098,1.1107,1.1072,1.1078,1.1118,1.1114,1.1234,1.1253,1.1174,1.1175,1.1176,0,1.009,1.0144,1.024,1.0285,1.0329,1.0401,1.0451,1.0506,1.0558,1.065,1.0693,1.0778,1.085,1.0982,1.1046,1.1129,1.1143,1.1179,1.1155,1.1142,1.1147,1.1144,1.1151,1.1183,1.1183,1.1184,1.1184,0,1.0158,1.0183,1.0253,1.0334,1.0393,1.046,1.0527,1.0562,1.0629,1.0686,1.0771,1.0826,1.0936,1.1022,1.1112,1.1161,1.1185,1.1191,1.1206,1.1194,1.1173,1.1188,1.1084,1.1188,1.1188,1.1187,1.1187,1.1187,1.0199,1.025,1.0326,1.0404,1.046,1.0522,1.0578,1.0631,1.0703,1.0796,1.0825,1.0914,1.0992,1.1115,1.1165,1.1237,1.1236,1.1256,1.1262,1.1267,1.1268,1.1159,1.1254,1.1254,1.1254,1.1254,1.1253,0,1.0271,1.0322,1.0393,1.0486,1.0548,1.0564,1.064,1.0691,1.0769,1.0839,1.0908,1.1008,1.1092,1.1163,1.1251,1.1295,1.1309,1.1317,1.1315,1.1327,1.1263,1.1243,1.1304,1.1304,1.1304,1.1304,1.1304,1.1304,1.0316,1.0403,1.0438,1.0555,1.0606,1.0693,1.0735,1.0794,1.085,1.096,1.1029,1.1075,1.1147,1.124,1.1318,1.1338,1.1369,1.1375,1.1397,1.1337,1.1331,1.1325,1.1307,1.1381,1.1381,1.1456,1.1456,1.1457]}]]